Volver al catálogo

DELTA 1 DEB

ActivoLEO
NORAD 19316·DEBRIS·🇺🇸 United States

Lanzado Jul 29, 1976 desde Vandenberg Space Force Base

Loading…

Próximos Pases (próximas 24 horas)

TLE

ActualizadoSource: Space-Track

Época: Sep 14, 2026, 14:35 UTC

1 19316U 76077FK  26257.60790580  .00000386  00000-0  47493-2 0  9990
2 19316 102.1775  23.5154 0209248 263.4247 164.7846 12.03768918822786

Sigue DELTA 1 DEB en tiempo real con AllMySat

Download on the App Store